496  
ASUS42 KCHS 181612  
RWRCHS  
 
REGIONAL WEATHER ROUNDUP  
NATIONAL WEATHER SERVICE CHARLESTON SC  
1200 PM EDT FRI AUG 18 2017  
 
NOTE: "FAIR" INDICATES FEW OR NO CLOUDS BELOW 12,000 FEET WITH NO  
SIGNIFICANT WEATHER AND/OR S TO VISIBILITY
.  
 
NOT ALL STATIONS ARE QUALITY CONTROLLED. USE DATA WITH CAUTION...  
ESPECIALLY DEWPOINT OBSERVATIONS.  
 
SCZ027-030-031-034>040-042>050-181700-   
..SOUTHEAST SOUTH CAROLINA
 
 
 
CITY SKY/WX TMP DP RH WIND PRES REMARKS
 
N CHARLESTON MOSUNNY 92 75 57 W6 29.98F HX 103  
WATERFRONT PRK N/A 90 76 63 W5 29.84S HX 101  
JOHNS ISLAND FAIR 93 77 59 W6 29.98F HX 107  
PINOPOLIS N/A 90 79 70 CALM 29.91F HX 105  
MONCKS CORNER FAIR 90 73 58 W5 29.97F HX 98  
SUMMERVILLE FAIR 90 73 58 SW6 29.99F HX 98  
BEAUFORT MCAS MOSUNNY 92 77 61 W8 29.98F HX 105  
BEAUFORT ARPT NOT AVBL  
HILTON HEAD IS SUNNY 91 77 62 N5 30.00F HX 105  
WALTERBORO SUNNY 90 73 58 W3 29.99F HX 98  
ALLENDALE NOT AVBL  
   
..SOUTHERN MIDLANDS AND PEE DEE
 
 
 
CITY SKY/WX TMP DP RH WIND PRES REMARKS
 
GEORGETOWN FAIR 90 79 70 CALM 29.98F HX 105  
KINGSTREE NOT AVBL  
ORANGEBURG MOSUNNY 91 72 53 VRB6 29.97F HX 98  
BARNWELL FAIR 93 75 55 SW8 29.97F HX 104  
AIKEN PTSUNNY 90 72 55 W9 30.02S HX 96  
MANNING FAIR 90 72 55 CALM 29.97S HX 96  
COLUMBIA MOSUNNY 93 72 50 W9 29.95S HX 101  
SUMTER SUNNY 92 72 51 SW8 29.93F HX 99  
FLORENCE SUNNY 90 75 61 SW9 29.95F HX 100  
MYRTLE BEACH MOSUNNY 91 77 62 W9 29.98S HX 105  
N MYRTLE BEACH MOSUNNY 90 77 65 VRB5 29.96F HX 103  
 

 
 
GAZ063-065-086>088-099>101-113>116-118-119-134>141-150-181700-   
..SOUTHEAST GEORGIA
 
 
 
CITY SKY/WX TMP DP RH WIND PRES REMARKS
 
SAVANNAH ARPT MOSUNNY 92 73 53 W6 30.00S HX 100  
HUNTER AAF SUNNY 92 75 58 N6 29.97F HX 102  
FORT STEWART SUNNY 92 73 53 SW8 29.98F HX 99  
STATESBORO SUNNY 91 67 45 W5 30.00S HX 94  
SYLVANIA SUNNY 91 75 58 W3 30.00F HX 101  
CLAXTON FAIR 92 73 54 NW3 30.00F HX 101  
   
..CSRA...CENTRAL AND FAR SOUTHEAST GEORGIA
 
 
 
CITY SKY/WX TMP DP RH WIND PRES REMARKS
 
THOMSON MOSUNNY 90 74 59 NW8 30.03F HX 98  
AUGUSTA-BUSH PTSUNNY 93 73 52 VRB6 29.97S HX 102  
AUGUSTA-DANIEL MOSUNNY 90 70 51 NW8 29.99F HX 95  
SWAINSBORO FAIR 90 73 58 W8 30.01S HX 98  
VIDALIA MOSUNNY 91 72 52 NW8 30.01F HX 98  
EASTMAN FAIR 91 61 36 W6 30.03F HX 91  
HAZLEHURST FAIR 93 58 29 CALM 30.00F HX 92  
ALMA SUNNY 94 70 45 N6 30.01F HX 100  
WAYCROSS MOSUNNY 92 72 52 NE7 30.01F HX 99  
JESUP FAIR 93 70 46 N3 30.01F HX 99  
BAXLEY FAIR 90 70 51 N7 30.01S HX 95  
BRUNSWICK MOSUNNY 90 72 55 N3 30.02F HX 96  
SAINT SIMONS MOSUNNY 89 78 70 SE8 30.01F HX 103  
 

 
 
SCZ027-028-034-036>038-045-046-048>050-GAZ119-141-181700-   
..LAKE AND SUPPLEMENTAL COASTAL OBSERVATIONS
 
 
 
STATION/POSITION TIME TEMP WIND PRES WAVE SWELL
 
AIR SEA DIR/SP/G HT/PER HT/PER/DIR  
(UTC) (F) (DEG/KT/KT) (MB) (FT/S) (FT/S/D)  
WINYAH BAY 1445 88 280/ 6 1015.0  
LAKE MURRAY 1520 87 270/ 11/ 17 1013.2  
ACE BASIN NERRS 1445 89 300/ 2 1016.0  
FORT PULASKI 1536 88 86 280/ 6/ 7 1016.2F  
SAPELO ISLAND 1500 91 330/ 4 1016.0  
 

 
 
ANZ835-935-AMZ111-154-330-350-352-354-370-450-454-472-181700-   
..C-MAN AND BUOY OBSERVATIONS
 
 
 
STATION/POSITION TIME TEMP WIND PRES WAVE SWELL
 
AIR SEA DIR/SP/G HT/PER HT/PER/DIR  
(UTC) (F) (DEG/KT/KT) (MB) (FT/S) (FT/S/D)  
BUOY 41004 1550 84 85 230/ 12/ 14 1015.6F 3/ 5 2/140/ 8  
BUOY 41008 1550 83 85 170/ 6/ 8 1016.3F 1/ 8 2/100/ 8  
FOLLY BEACH CMAN 1500 89 310/ 6/ 8 1016.2F  
CAPERS NEARSHORE 1508 88 86 270/ 4/ 6 1015.7S  
FRIPP NEARSHORE 1508 88 340/ 4/ 6 1015.7S  
 
 
STATION/POSITION TIME TEMP WIND PRES WAVE SWELL
 
AIR SEA DIR/SP/G HT/PER HT/PER/DIR  
(UTC) (F) (DEG/KT/KT) (MB) (FT/S) (FT/S/D)  
5E ST. MARYS GA 1530 85 N/A 1/ 8  
FRYING PAN BUOY 1550 84 84 220/ 12/ 14 1015.3F 3/ 5 2/150/ 8  
BUOY 41025 1550 85 85 220/ 12/ 14 1015.0R 2/ 5 2/ 70/ 8  
CAPE LOOKOUT NC 1500 85 220/ 11/ 14 1014.7R  
BUOY 41002 1550 84 85 240/ 10/ 12 1017.5S 3/ 5 2/ 80/ 8  
BUOY 41010 1550 84 85 270/ 6/ 8 1017.6F 2/ 8 2/120/ 8  
ST AUGUSTINE FL 1600 82 82 130/ 11/ 11 1016.8F  
 

 
 
 
CLICK HERE TO GO TO PREVIOUS BULLETINS.

The Nexlab SC Page
The Nexlab GA Page Main Text Page